FENGYUN 1C DEB, 30599

Orbit data source: Space-Track

FENGYUN 1C DEB, 30599 is space debris in SSO originally from a launch on Mon, 10 May 1999 UTC launched from the Taiyaun Space Center, China (TSC). Fengyun 1C debris stems from the Chinese weather satellite Fengyun-1C, which was intentionally destroyed by a Chinese anti-satellite missile in 2007. This event dramatically increased the amount of space debris, with thousands of trackable fragments posing hazards to satellites and human spaceflight. The Fengyun 1C debris cloud has become a focal point in discussions about space sustainability and the need for international regulations to prevent the creation of new debris.

Loading next visibility...
Identifier
30599, 1999-025AME
Orbit
SSO
Country
Flag of CNCN / PRC
Related business
Manufacturer
Unknown
Mission
Spacecraft
Bus & Motor
Unknown
Mass
Unknown
Launch date (UTC)
Icon of a cake. It is the launch day of the satellite!1999-05-10 (27 years ago)
Launch vehicle
Unknown
Launch site
Taiyaun Space Center, China (TSC)
Object type
Payload
Rocket body
Debris
Shape & HBR
Unknown shape, 0.1 m
Radar Cross Section
Small (<0.1 m²)

Expand to show TLE details & history
Last TLE update: 10 hours ago

TLE from 10 hours ago
0 FENGYUN 1C DEB
1 30599U 99025AME 26129.99714874  .00000759  00000-0  24184-3 0  9993
2 30599  98.5971 142.7543 0299045 275.2814  81.4312 14.20374019992719
Epoch: 2026-05-09T23:55Z
TLE epoch observation values (Epoch: 2026-05-09T23:55:53.651Z)
Latitude
0.00002°
Longitude
-84.02581°
Altitude
801.25 km
Speed
7.466 km/s
True Right ascension
09h 31m 01s
True Declination
0° 00' 00"
Sunlit
Object was in daylight at epoch
Visualization orbit readout
Latitude
Unknown
Longitude
Unknown
Altitude
Unknown
Speed
Unknown
Apparent Right ascension
Unknown
Apparent Declination
Unknown
Sunlit
N/A
Visualization observer readout
Local Sidereal Time
18:05:48
Azimuth
Unknown
Elevation
Unknown
Doppler factor
Unknown
Orbital elements
Apogee altitude
1,036.531 km
Perigee altitude
605.943 km
Semi-major axis
7,199.374 km
Eccentricity
0.0299
Inclination
98.5971°
RAAN
142.7543°
Arg. of periapsis
275.2814°
True anomaly
84.83672°
Mean anomaly
81.4312°
Eccentric anomaly
83.13231°
Mean motion
3.55305 °/min
Orbital period
101.32 mins
BSTAR
0.00024184
Loading maneuver chart data...
Computing Atmospheric mass density...

Documentation

Showing up to 5 results
|